Location: Lafig�re
(44.4503°N, 4.0357°E)
Time: 12:52:26
(UTC+00:00)

CZ-2C R/B - Visible Passes

Search period start: 16 January 2021 00:00
Search period end: 26 January 2021 00:00
Orbit: 705 x 907 km, 98.1° (Epoch: 15 January)

Date Brightness Start Highest point End Pass type
(mag) Time Alt. Az. Time Alt. Az. Time Alt. Az.
16 Jan 3.1 18:08:34 10° SSE 18:13:43 85° WSW 18:19:12 10° NNW visible
16 Jan 6.3 19:53:11 10° W 19:54:30 11° W 19:55:50 10° WNW visible
17 Jan 5.0 06:21:56 10° NNE 06:27:22 39° E 06:32:44 10° SSE visible
17 Jan 3.1 17:43:48 10° SSE 17:48:53 60° ENE 17:54:17 10° N visible
17 Jan 5.7 19:25:36 10° SW 19:29:13 19° W 19:33:00 10° NW visible
18 Jan 5.8 05:57:36 10° NE 06:02:17 25° E 06:06:57 10° SE visible
18 Jan 3.6 17:19:22 10° SE 17:24:09 38° ENE 17:29:11 10° N visible
18 Jan 4.9 18:59:29 10° SSW 19:04:04 31° W 19:08:53 10° NNW visible
19 Jan 6.3 05:33:48 10° NE 05:37:07 15° E 05:40:26 10° ESE visible
19 Jan 4.0 18:33:57 10° S 18:39:00 51° W 18:44:23 10° NNW visible
20 Jan 3.2 18:08:48 10° SSE 18:14:03 83° WSW 18:19:40 10° NNW visible
20 Jan 6.3 19:53:28 10° W 19:54:51 11° W 19:56:16 10° WNW visible
21 Jan 4.9 06:22:20 10° NNE 06:27:48 40° E 06:33:09 10° SSE visible
21 Jan 3.2 17:44:01 10° SSE 17:49:13 62° ENE 17:54:45 10° N visible
21 Jan 5.7 19:25:54 10° SW 19:29:35 19° W 19:33:25 10° NW visible
22 Jan 5.8 05:57:58 10° NE 06:02:43 25° E 06:07:23 10° SSE visible
22 Jan 3.6 17:19:34 10° SE 17:24:30 39° ENE 17:29:41 10° N visible
22 Jan 5.0 18:59:46 10° SSW 19:04:26 31° W 19:09:20 10° NNW visible
23 Jan 6.3 05:34:08 10° NE 05:37:33 16° E 05:40:54 10° ESE visible
23 Jan 4.1 18:34:13 10° S 18:39:22 50° W 18:44:50 10° NNW visible
24 Jan 3.3 18:09:03 10° S 18:14:25 81° WSW 18:20:06 10° NNW visible
24 Jan 6.4 19:53:48 10° W 19:55:14 11° W 19:56:41 10° WNW visible
25 Jan 4.9 06:22:44 10° NNE 06:28:13 41° E 06:33:32 10° SSE visible
25 Jan 3.2 17:44:16 10° SSE 17:49:35 65° ENE 17:55:13 10° N visible
25 Jan 5.8 19:26:13 10° SW 19:29:58 19° W 19:33:51 10° NW visible
